QPF
0.00 0.00 0.00 0.00 0.00 0.00 0.00 0.00 0.00 0.00 0.00 0.00 0.00 0.00 0.00 0.00 0.00 0.00 0.00 0.00 0.00 0.00 0.00 0.00 0.00 0.00 0.00 0.00 0.00 0.00 0.00 0.00 0.00 0.00 0.00 0.00 0.01 0.00 0.00 0.01 0.01 0.00 0.00 0.00
0.00 0.00 0.00 0.00 0.00 0.00 0.00 0.00 0.00 0.00 0.00 0.00 0.00 0.00 0.00 0.00 0.00 0.00 0.00 0.00 0.00 0.00 0.00 0.00 0.00 0.00 0.00 0.00 0.00 0.00 0.00 0.00 0.00 0.00 0.00 0.00 0.00 0.00 0.00 0.00 0.00 0.00 0.00 0.00
0.00 0.00 0.00 0.00 0.00 0.00 0.00 0.00 0.00 0.00 0.00 0.00 0.00 0.00 0.00 0.00 0.00 0.00 0.00 0.00 0.00 0.00 0.00 0.00 0.00 0.00 0.00 0.00 0.00 0.00 0.00 0.00 0.00 0.00 0.00 0.00 0.00 0.00 0.00 0.00 0.00 0.00 0.00 0.00
0.00 0.00 0.00 0.00 0.00 0.00 0.00 0.00 0.00 0.00 0.00 0.00 0.00 0.00 0.00 0.00 0.00 0.00 0.00 0.00 0.00 0.00 0.00 0.00 0.00 0.00 0.00 0.00 0.00 0.00 0.00 0.00 0.00 0.01 0.00 0.00 0.00 0.00 0.00 0.00 0.00 0.00 0.00 0.00
0.00 0.00 0.00 0.00 0.00 0.00 0.00 0.00 0.00 0.00 0.00 0.00 0.00 0.00 0.00 0.00 0.00 0.00 0.00 0.00 0.00 0.00 0.00 0.00 0.00 0.01 0.02 0.00 0.00 0.00 0.00 0.01 0.01 0.00 0.00 0.00 0.00 0.00 0.00 0.00 0.00 0.00 0.00 0.00
0.00 0.00 0.00 0.00 0.00 0.00 0.00 0.00 0.00 0.00 0.00 0.00 0.00 0.00 0.00 0.00 0.00 0.00 0.00 0.00 0.00 0.00 0.00 0.00 0.01 0.02 0.01 0.00 0.00 0.00 0.00 0.00 0.00 0.00 0.00 0.00 0.00 0.00 0.00 0.00 0.00 0.00 0.00 0.00
0.00 0.00 0.00 0.00 0.00 0.00 0.00 0.00 0.00 0.00 0.00 0.00 0.00 0.00 0.00 0.00 0.00 0.00 0.00 0.00 0.00 0.00 0.00 0.00 0.00 0.00 0.00 0.00 0.00 0.00 0.00 0.00 0.00 0.00 0.00 0.00 0.00 0.00 0.01 0.01 0.00 0.00 0.00 0.00
0.00 0.00 0.00 0.00 0.00 0.00 0.00 0.00 0.00 0.00 0.00 0.00 0.00 0.00 0.00 0.00 0.00 0.00 0.00 0.00 0.00 0.00 0.00 0.00 0.00 0.00 0.00 0.00 0.00 0.00 0.00 0.00 0.00 0.00 0.00 0.00 0.00 0.00 0.00 0.00 0.00 0.00 0.00 0.00
0.00 0.00 0.00 0.00 0.00 0.00 0.00 0.00 0.00 0.00 0.00 0.00 0.00 0.00 0.00 0.00 0.00 0.00 0.00 0.00 0.00 0.00 0.00 0.00 0.00 0.00 0.00 0.00 0.00 0.00 0.00 0.00 0.00 0.00 0.00 0.00 0.00 0.00 0.00 0.00 0.00 0.00 0.00 0.00
0.00 0.00 0.00 0.00 0.00 0.00 0.00 0.00 0.00 0.00 0.00 0.00 0.00 0.00 0.00 0.00 0.00 0.00 0.00 0.00 0.00 0.00 0.00 0.01 0.00 0.00 0.00 0.00 0.00 0.00 0.00 0.00 0.00 0.00 0.00 0.00 0.00 0.00 0.00 0.00 0.00 0.00 0.00 0.00
0.00 0.00 0.00 0.00 0.00 0.00 0.00 0.00 0.00 0.00 0.00 0.00 0.00 0.00 0.00 0.00 0.00 0.00 0.00 0.00 0.00 0.01 0.01 0.01 0.00 0.01 0.01 0.00 0.00 0.00 0.00 0.00 0.00 0.00 0.00 0.00 0.00 0.00 0.00 0.00 0.00 0.00 0.00 0.01
0.00 0.00 0.00 0.00 0.00 0.00 0.00 0.00 0.00 0.00 0.00 0.00 0.00 0.00 0.00 0.00 0.00 0.00 0.00 0.00 0.00 0.01 0.01 0.01 0.01 0.00 0.00 0.00 0.00 0.00 0.00 0.00 0.00 0.00 0.00 0.00 0.00 0.00 0.00 0.00 0.00 0.00 0.01 0.01
0.00 0.00 0.00 0.00 0.01 0.00 0.00 0.00 0.00 0.00 0.00 0.00 0.00 0.00 0.00 0.00 0.00 0.00 0.00 0.00 0.00 0.00 0.00 0.00 0.00 0.00 0.00 0.00 0.00 0.00 0.00 0.00 0.00 0.00 0.00 0.00 0.00 0.00 0.00 0.00 0.00 0.00 0.00 0.00
0.00 0.00 0.00 0.00 0.01 0.00 0.00 0.00 0.00 0.00 0.00 0.00 0.00 0.00 0.00 0.00 0.00 0.00 0.00 0.00 0.00 0.00 0.00 0.00 0.00 0.00 0.00 0.00 0.00 0.00 0.00 0.00 0.00 0.00 0.00 0.00 0.00 0.00 0.00 0.00 0.00 0.00 0.00 0.01
0.00 0.00 0.00 0.00 0.00 0.00 0.00 0.00 0.00 0.00 0.00 0.00 0.00 0.00 0.00 0.00 0.00 0.00 0.00 0.00 0.00 0.00 0.00 0.00 0.00 0.00 0.00 0.00 0.00 0.00 0.00 0.00 0.00 0.00 0.00 0.00 0.00 0.00 0.00 0.00 0.00 0.00 0.01 0.00
0.00 0.00 0.00 0.00 0.00 0.00 0.00 0.00 0.00 0.00 0.00 0.00 0.00 0.00 0.00 0.00 0.00 0.00 0.00 0.00 0.00 0.00 0.00 0.00 0.00 0.00 0.00 0.00 0.00 0.00 0.00 0.00 0.00 0.00 0.00 0.00 0.00 0.00 0.00 0.01 0.01 0.00 0.00 0.00
0.00 0.00 0.00 0.00 0.00 0.00 0.01 0.00 0.00 0.00 0.00 0.00 0.00 0.00 0.00 0.00 0.00 0.00 0.00 0.00 0.00 0.00 0.00 0.00 0.00 0.00 0.00 0.00 0.00 0.00 0.00 0.00 0.00 0.00 0.00 0.00 0.00 0.00 0.00 0.00 0.01 0.00 0.00 0.00
0.00 0.00 0.00 0.00 0.00 0.03 0.03 0.00 0.00 0.00 0.00 0.00 0.00 0.00 0.00 0.00 0.00 0.00 0.00 0.00 0.00 0.00 0.00 0.00 0.00 0.00 0.00 0.00 0.00 0.00 0.00 0.00 0.00 0.00 0.00 0.00 0.00 0.00 0.00 0.01 0.02 0.01 0.01 0.01
0.00 0.00 0.00 0.00 0.01 0.01 0.01 0.00 0.00 0.00 0.00 0.00 0.00 0.00 0.00 0.00 0.00 0.00 0.00 0.00 0.00 0.00 0.00 0.00 0.00 0.00 0.00 0.00 0.00 0.00 0.00 0.00 0.00 0.00 0.00 0.00 0.00 0.00 0.00 0.02 0.02 0.02 0.02 0.01
0.00 0.00 0.01 0.01 0.00 0.00 0.01 0.00 0.00 0.00 0.00 0.00 0.00 0.00 0.00 0.00 0.00 0.00 0.00 0.00 0.00 0.00 0.00 0.00 0.00 0.00 0.00 0.00 0.00 0.00 0.00 0.00 0.00 0.00 0.00 0.00 0.01 0.01 0.01 0.04 0.01 0.02 0.03 0.02
0.00 0.00 0.01 0.01 0.00 0.00 0.00 0.00 0.00 0.00 0.00 0.00 0.00 0.00 0.00 0.00 0.00 0.00 0.00 0.00 0.00 0.00 0.00 0.00 0.00 0.00 0.00 0.00 0.00 0.00 0.00 0.00 0.00 0.00 0.00 0.00 0.02 0.01 0.02 0.03 0.00 0.02 0.03 0.06
0.00 0.01 0.01 0.00 0.00 0.00 0.00 0.00 0.00 0.00 0.00 0.00 0.00 0.00 0.00 0.00 0.00 0.00 0.00 0.00 0.00 0.00 0.00 0.00 0.00 0.00 0.00 0.00 0.00 0.00 0.00 0.00 0.00 0.00 0.00 0.00 0.01 0.00 0.01 0.00 0.00 0.05 0.08 0.11
0.02 0.00 0.00 0.00 0.00 0.00 0.00 0.00 0.00 0.00 0.00 0.00 0.00 0.00 0.00 0.00 0.00 0.00 0.00 0.00 0.00 0.00 0.00 0.00 0.00 0.00 0.00 0.00 0.00 0.00 0.00 0.00 0.00 0.00 0.00 0.00 0.00 0.00 0.00 0.00 0.01 0.06 0.06 0.09
0.00 0.00 0.00 0.00 0.00 0.00 0.00 0.00 0.00 0.00 0.00 0.00 0.00 0.00 0.00 0.00 0.00 0.00 0.00 0.00 0.00 0.00 0.00 0.00 0.00 0.00 0.00 0.00 0.00 0.00 0.00 0.00 0.00 0.00 0.00 0.00 0.00 0.00 0.00 0.00 0.00 0.01 0.02 0.03
0.00 0.00 0.00 0.00 0.00 0.00 0.00 0.00 0.00 0.00 0.00 0.00 0.00 0.00 0.00 0.00 0.00 0.00 0.00 0.00 0.00 0.00 0.00 0.00 0.00 0.00 0.00 0.00 0.00 0.00 0.00 0.00 0.00 0.00 0.00 0.00 0.00 0.00 0.00 0.00 0.00 0.00 0.00 0.00
0.00 0.00 0.00 0.00 0.00 0.00 0.00 0.00 0.00 0.00 0.00 0.00 0.00 0.00 0.00 0.00 0.00 0.00 0.00 0.00 0.00 0.00 0.00 0.00 0.00 0.00 0.00 0.00 0.00 0.00 0.00 0.00 0.00 0.00 0.00 0.00 0.00 0.00 0.00 0.00 0.00 0.00 0.00 0.00
MSLP
1008.80 1008.10 1006.97 1006.60 1007.05 1007.36 1007.23 1006.96 1006.75 1006.78 1007.81 1008.49 1007.90 1007.67 1007.81 1008.77 1010.17 1010.52 1010.76 1011.17 1011.66 1012.14 1012.83 1013.75 1014.58 1015.40 1016.11 1016.67 1017.19 1017.74 1018.17 1018.48 1018.73 1018.63 1018.56 1018.27 1018.18 1017.89 1018.00 1017.93 1018.84 1019.00 1018.71 1018.76
1008.43 1007.28 1006.92 1007.17 1007.42 1007.34 1006.87 1006.51 1006.17 1006.69 1007.78 1008.27 1007.47 1007.19 1007.24 1007.76 1008.64 1009.61 1010.20 1010.76 1011.20 1011.76 1012.38 1013.29 1014.05 1014.89 1015.55 1016.06 1016.57 1017.04 1017.62 1018.00 1018.39 1018.41 1018.49 1018.34 1018.16 1017.99 1018.05 1018.17 1018.58 1018.63 1018.69 1018.61
1007.07 1006.36 1007.16 1007.27 1006.90 1006.85 1006.30 1005.98 1006.15 1006.35 1007.48 1007.72 1007.54 1006.59 1005.69 1007.05 1008.25 1008.93 1009.58 1010.03 1010.60 1011.06 1011.55 1012.42 1013.45 1014.17 1014.84 1015.33 1015.89 1016.50 1017.13 1017.73 1018.05 1018.23 1018.14 1018.41 1018.27 1018.04 1017.71 1017.55 1017.69 1017.83 1018.52 1018.53
1006.79 1006.51 1007.00 1006.97 1006.32 1006.14 1005.98 1005.71 1006.05 1006.32 1007.08 1006.24 1007.57 1006.05 1005.69 1006.22 1007.38 1008.13 1008.83 1009.51 1010.08 1010.63 1011.28 1011.63 1012.61 1013.76 1014.19 1014.70 1015.62 1016.15 1016.70 1017.21 1017.61 1017.95 1017.76 1017.94 1017.70 1017.40 1017.18 1017.63 1017.56 1018.04 1018.20 1018.24
1006.09 1005.85 1006.02 1006.23 1006.04 1005.91 1005.95 1005.95 1006.01 1006.00 1006.32 1006.62 1006.04 1006.35 1005.35 1006.09 1006.73 1006.98 1008.06 1008.73 1009.39 1009.95 1010.59 1011.10 1012.31 1013.12 1013.53 1014.01 1014.88 1015.82 1016.43 1016.90 1017.13 1017.52 1017.70 1017.50 1017.44 1017.08 1017.12 1017.42 1017.55 1017.66 1017.66 1017.80
1006.13 1005.96 1006.28 1006.11 1005.69 1005.70 1005.99 1006.22 1006.17 1006.21 1005.85 1005.60 1005.22 1005.92 1005.39 1005.80 1006.90 1007.44 1007.87 1008.58 1009.07 1009.61 1010.47 1011.10 1011.92 1013.49 1014.10 1014.30 1015.02 1015.40 1016.08 1016.25 1016.68 1016.93 1017.23 1017.48 1017.32 1017.23 1017.19 1017.13 1017.33 1016.88 1017.01 1016.92
1005.48 1005.39 1005.66 1005.91 1005.48 1005.51 1005.98 1005.72 1004.91 1004.81 1005.23 1005.56 1006.17 1006.07 1006.05 1006.97 1007.43 1007.92 1008.27 1008.76 1009.47 1009.99 1010.60 1011.20 1012.44 1013.17 1013.49 1013.85 1014.41 1015.24 1015.56 1016.17 1016.50 1016.56 1016.74 1016.89 1017.18 1017.32 1017.40 1017.16 1016.76 1016.91 1016.64 1016.47
1004.81 1004.54 1004.62 1005.02 1005.20 1005.12 1005.36 1005.96 1005.82 1005.03 1005.07 1005.38 1006.01 1006.36 1006.79 1007.71 1008.07 1008.38 1008.88 1009.33 1009.81 1010.63 1011.07 1011.70 1012.35 1012.93 1013.37 1013.82 1014.62 1015.20 1015.27 1015.63 1015.87 1016.21 1016.68 1016.86 1017.04 1016.89 1016.73 1016.58 1017.15 1017.06 1016.73 1016.65
1004.44 1004.57 1005.13 1005.58 1005.63 1005.82 1005.43 1006.04 1006.50 1006.50 1006.11 1006.13 1005.80 1006.66 1006.87 1007.84 1008.12 1008.77 1009.17 1009.90 1010.28 1010.83 1011.38 1011.90 1012.61 1013.11 1013.49 1014.18 1014.98 1015.14 1015.22 1015.65 1016.04 1016.37 1016.68 1016.94 1017.04 1017.13 1017.10 1017.39 1017.50 1016.90 1016.66 1016.23
1005.37 1005.31 1005.34 1005.77 1006.04 1006.24 1006.18 1006.77 1006.69 1006.23 1005.97 1005.73 1006.34 1007.27 1007.10 1008.17 1008.71 1008.76 1009.05 1009.65 1010.26 1010.98 1011.62 1012.44 1012.93 1013.50 1014.17 1015.29 1015.67 1015.92 1016.33 1015.95 1016.43 1016.66 1016.59 1016.73 1017.09 1017.10 1017.35 1017.21 1017.11 1016.85 1016.61 1016.34
1006.48 1006.53 1005.75 1006.21 1005.54 1005.54 1006.12 1006.24 1007.02 1007.69 1007.75 1007.20 1006.91 1007.44 1009.16 1009.39 1009.64 1009.65 1009.51 1009.56 1010.23 1011.15 1011.85 1012.64 1013.18 1014.83 1015.50 1015.88 1015.85 1015.61 1015.85 1016.12 1016.25 1016.60 1016.87 1017.02 1017.13 1017.32 1017.25 1017.07 1016.84 1016.65 1016.33 1016.17
1007.66 1007.28 1006.51 1006.10 1006.59 1006.95 1006.97 1007.10 1007.76 1007.86 1007.64 1007.54 1008.53 1008.80 1009.84 1010.17 1010.22 1010.50 1010.29 1010.45 1010.87 1011.89 1012.71 1013.46 1014.68 1015.35 1015.91 1016.29 1015.87 1016.05 1016.19 1016.19 1016.49 1016.80 1017.08 1017.13 1017.37 1017.54 1017.19 1017.04 1016.87 1016.58 1016.13 1015.66
1008.34 1007.83 1006.77 1006.28 1007.42 1007.47 1007.33 1007.65 1008.37 1008.79 1008.97 1008.41 1008.34 1008.92 1009.94 1010.93 1011.01 1011.23 1011.32 1011.65 1012.46 1013.13 1013.96 1014.60 1015.24 1015.94 1015.85 1015.81 1016.10 1016.36 1016.51 1016.52 1016.70 1016.99 1017.00 1017.11 1017.37 1017.50 1017.26 1016.96 1016.61 1016.17 1015.63 1015.09
1009.47 1008.54 1007.75 1007.11 1007.25 1007.80 1007.85 1008.19 1008.45 1008.86 1008.75 1008.42 1008.65 1009.67 1010.81 1011.73 1011.83 1012.05 1012.47 1012.88 1013.30 1013.96 1014.60 1015.08 1015.50 1015.14 1016.01 1016.08 1016.30 1016.58 1016.80 1016.93 1017.13 1017.40 1017.34 1017.34 1017.51 1017.42 1017.07 1016.66 1016.18 1015.64 1015.07 1014.50
1009.59 1008.79 1008.45 1008.17 1008.23 1008.38 1008.58 1008.79 1008.98 1009.02 1009.59 1009.63 1010.04 1010.64 1012.18 1012.69 1012.71 1013.01 1013.21 1013.39 1013.78 1014.49 1015.08 1014.77 1014.94 1015.32 1015.64 1016.16 1016.53 1016.89 1017.15 1017.33 1017.55 1017.52 1017.46 1017.50 1017.41 1017.03 1016.61 1016.27 1015.79 1015.29 1014.83 1014.32
1009.69 1009.03 1008.71 1008.13 1008.49 1008.49 1008.82 1009.40 1009.72 1009.92 1010.38 1010.60 1011.05 1011.65 1013.04 1013.30 1013.34 1013.49 1013.59 1013.82 1014.30 1014.54 1014.76 1014.94 1015.35 1015.66 1016.03 1016.52 1017.00 1017.22 1017.38 1017.58 1017.72 1017.64 1017.55 1017.40 1017.04 1016.84 1016.58 1016.05 1015.51 1015.00 1014.48 1014.10
1009.33 1008.79 1008.46 1007.63 1008.66 1008.92 1009.27 1009.72 1010.10 1010.59 1011.37 1011.56 1011.61 1012.81 1013.25 1013.39 1013.85 1013.96 1013.94 1014.16 1014.44 1014.77 1015.13 1015.39 1015.68 1016.14 1016.66 1016.83 1017.35 1017.47 1017.60 1017.64 1017.70 1017.66 1017.39 1017.00 1016.92 1016.63 1016.21 1015.75 1015.23 1014.64 1014.17 1013.69
1009.11 1008.99 1008.75 1008.15 1008.69 1008.90 1010.00 1010.55 1010.97 1011.07 1011.94 1012.27 1012.75 1013.32 1013.72 1014.01 1014.12 1014.19 1014.37 1014.49 1014.75 1015.09 1015.36 1015.60 1015.88 1016.31 1016.85 1017.06 1017.27 1017.57 1017.53 1017.46 1017.48 1017.29 1016.96 1016.61 1016.37 1016.15 1015.96 1015.35 1015.22 1014.59 1013.98 1013.36
1009.37 1008.97 1008.36 1008.68 1008.33 1009.37 1010.37 1010.93 1011.17 1011.16 1012.02 1012.94 1013.12 1013.59 1014.01 1014.26 1013.99 1014.07 1014.79 1015.06 1015.18 1015.39 1015.75 1016.08 1016.35 1016.66 1017.02 1017.21 1017.40 1017.46 1017.33 1017.17 1016.98 1016.62 1016.47 1016.36 1016.25 1016.07 1015.80 1015.26 1015.09 1014.35 1013.78 1013.01
1009.52 1009.39 1009.14 1009.08 1009.24 1009.11 1010.61 1011.35 1011.71 1011.82 1011.71 1013.19 1013.44 1013.71 1013.96 1014.04 1013.25 1013.58 1014.80 1015.22 1015.43 1015.80 1016.05 1016.37 1016.57 1016.85 1017.04 1017.10 1017.20 1017.16 1016.88 1016.57 1016.30 1016.14 1016.26 1016.52 1016.07 1015.98 1015.38 1015.20 1014.82 1013.94 1013.49 1012.69
1009.05 1009.27 1009.21 1009.13 1009.59 1010.06 1011.35 1011.71 1011.84 1011.91 1012.79 1013.29 1013.51 1013.81 1014.00 1014.11 1014.62 1014.97 1015.18 1015.27 1015.61 1015.95 1016.12 1016.44 1016.56 1016.65 1016.77 1016.79 1016.83 1016.78 1016.54 1016.16 1016.02 1015.83 1016.31 1016.43 1015.97 1015.46 1015.17 1014.93 1014.47 1013.89 1013.31 1012.73
1009.07 1009.12 1008.96 1009.79 1010.07 1010.68 1011.91 1011.82 1011.98 1012.59 1013.06 1013.31 1013.57 1013.75 1014.04 1014.48 1014.81 1015.01 1015.21 1015.41 1015.65 1015.80 1015.96 1016.17 1016.27 1016.23 1016.45 1016.54 1016.58 1016.49 1016.18 1015.95 1015.75 1015.54 1015.83 1015.80 1015.69 1015.17 1014.92 1014.75 1014.26 1014.07 1013.52 1012.91
1009.93 1010.29 1010.00 1010.92 1011.04 1012.10 1012.28 1012.26 1012.78 1012.94 1013.01 1013.25 1013.57 1013.90 1014.29 1014.43 1014.65 1014.90 1015.10 1015.29 1015.50 1015.66 1015.77 1015.85 1015.85 1015.88 1015.99 1015.95 1015.96 1015.85 1015.79 1015.68 1015.46 1015.28 1015.25 1015.29 1015.24 1015.02 1014.84 1014.36 1013.92 1013.42 1013.30 1013.23
1010.68 1010.99 1010.53 1011.37 1011.92 1012.01 1012.41 1012.76 1012.99 1013.12 1013.11 1013.44 1013.67 1013.96 1014.25 1014.24 1014.49 1014.64 1014.79 1014.94 1014.99 1015.04 1015.17 1015.33 1015.38 1015.39 1015.30 1015.35 1015.38 1015.27 1015.09 1015.16 1015.07 1014.87 1014.78 1014.79 1014.72 1014.89 1014.48 1013.98 1013.52 1013.38 1013.18 1013.43
1010.58 1011.18 1011.00 1011.41 1011.85 1012.23 1012.41 1012.70 1012.88 1013.10 1013.37 1013.49 1013.64 1013.86 1014.08 1014.19 1014.23 1014.28 1014.36 1014.49 1014.53 1014.64 1014.71 1014.81 1014.89 1014.98 1014.96 1014.89 1014.77 1014.73 1014.67 1014.72 1014.70 1014.56 1014.47 1014.29 1013.87 1014.10 1013.91 1013.52 1013.52 1013.58 1013.64 1014.31
1010.85 1010.75 1010.60 1010.36 1011.84 1011.89 1012.27 1012.71 1013.00 1013.01 1013.16 1013.25 1013.35 1013.52 1013.81 1013.92 1013.89 1013.90 1013.94 1014.08 1014.17 1014.21 1014.32 1014.30 1014.35 1014.41 1014.33 1014.26 1014.23 1014.20 1014.16 1014.21 1014.36 1014.24 1013.75 1013.73 1013.85 1013.59 1013.32 1013.21 1013.09 1013.82 1013.98 1014.18
Thickness
5782 5772 5772 5787 5785 5780 5776 5771 5769 5783 5783 5767 5772 5775 5779 5775 5757 5751 5750 5746 5740 5735 5733 5724 5716 5708 5699 5691 5684 5676 5668 5663 5658 5654 5649 5646 5640 5639 5633 5630 5618 5612 5610 5605
5768 5764 5786 5787 5780 5773 5775 5770 5774 5781 5775 5764 5772 5770 5780 5777 5766 5756 5748 5742 5737 5732 5727 5719 5712 5703 5695 5687 5680 5674 5666 5659 5653 5648 5642 5637 5633 5629 5624 5618 5611 5607 5601 5598
5765 5785 5784 5774 5773 5766 5775 5772 5769 5768 5766 5768 5760 5761 5780 5776 5764 5757 5751 5747 5739 5732 5725 5718 5708 5701 5694 5685 5678 5669 5662 5653 5646 5639 5634 5626 5623 5620 5618 5615 5609 5603 5592 5588
5770 5789 5771 5765 5770 5779 5756 5788 5778 5770 5754 5754 5756 5734 5769 5770 5757 5751 5747 5741 5735 5729 5723 5719 5709 5696 5691 5683 5672 5665 5657 5648 5640 5632 5627 5619 5616 5611 5611 5604 5600 5589 5583 5578
5768 5780 5772 5762 5770 5782 5764 5784 5776 5774 5761 5751 5756 5736 5763 5760 5748 5752 5746 5741 5735 5730 5723 5715 5704 5696 5685 5681 5672 5661 5651 5641 5634 5626 5619 5615 5609 5608 5603 5594 5587 5580 5575 5571
5772 5793 5778 5772 5784 5785 5784 5770 5767 5767 5764 5735 5752 5744 5750 5751 5741 5741 5743 5736 5732 5726 5717 5711 5704 5685 5681 5675 5665 5655 5643 5637 5629 5621 5612 5605 5600 5595 5588 5583 5576 5576 5570 5566
5770 5773 5784 5783 5770 5782 5772 5762 5748 5741 5735 5725 5746 5736 5740 5741 5741 5736 5730 5727 5721 5717 5709 5701 5687 5679 5675 5668 5660 5647 5638 5626 5620 5613 5606 5600 5591 5584 5576 5572 5570 5564 5562 5560
5749 5746 5779 5788 5775 5767 5766 5757 5737 5715 5726 5736 5752 5716 5728 5736 5736 5733 5726 5720 5714 5703 5699 5689 5683 5676 5669 5660 5648 5639 5630 5622 5615 5605 5594 5587 5581 5575 5571 5567 5557 5553 5552 5548
5759 5754 5780 5778 5779 5774 5762 5745 5758 5732 5746 5723 5738 5731 5743 5730 5727 5721 5715 5707 5702 5696 5690 5683 5675 5668 5661 5650 5637 5633 5626 5612 5600 5592 5583 5576 5569 5562 5556 5549 5543 5545 5542 5541
5767 5741 5768 5768 5772 5768 5760 5758 5731 5743 5707 5708 5721 5707 5711 5711 5708 5714 5710 5703 5699 5692 5683 5673 5666 5659 5648 5632 5622 5615 5605 5598 5586 5578 5573 5566 5557 5552 5545 5542 5538 5535 5533 5530
5759 5746 5752 5759 5757 5754 5750 5744 5734 5726 5717 5698 5700 5709 5707 5701 5702 5700 5704 5704 5695 5685 5676 5666 5659 5640 5629 5619 5613 5610 5597 5586 5578 5570 5562 5554 5547 5539 5537 5533 5530 5527 5525 5521
5750 5743 5731 5742 5753 5753 5747 5734 5724 5702 5707 5717 5697 5693 5706 5702 5701 5697 5695 5693 5688 5675 5665 5654 5638 5627 5613 5604 5597 5592 5585 5575 5567 5560 5550 5544 5536 5529 5527 5523 5520 5517 5516 5516
5742 5732 5724 5730 5725 5733 5726 5728 5720 5711 5706 5695 5691 5689 5705 5696 5692 5688 5682 5678 5667 5658 5647 5637 5625 5609 5602 5600 5590 5581 5574 5567 5559 5549 5543 5535 5527 5520 5518 5515 5513 5511 5511 5512
5728 5727 5723 5717 5717 5723 5711 5714 5717 5707 5695 5700 5698 5690 5683 5678 5676 5675 5669 5663 5656 5645 5634 5621 5609 5612 5595 5587 5580 5573 5564 5557 5548 5538 5532 5526 5519 5514 5511 5508 5506 5506 5506 5506
5723 5711 5720 5721 5720 5718 5710 5704 5704 5699 5696 5686 5688 5680 5668 5667 5667 5663 5661 5656 5646 5632 5619 5618 5609 5597 5589 5580 5573 5564 5556 5548 5540 5533 5526 5519 5513 5509 5505 5500 5498 5497 5496 5497
5718 5708 5714 5711 5716 5714 5701 5699 5696 5694 5689 5687 5682 5671 5668 5666 5665 5657 5652 5645 5633 5626 5618 5609 5596 5588 5580 5572 5563 5555 5548 5539 5532 5525 5519 5513 5508 5501 5494 5489 5485 5483 5483 5484
5711 5713 5708 5706 5708 5702 5683 5691 5689 5686 5682 5678 5667 5662 5665 5659 5651 5647 5644 5638 5629 5619 5608 5597 5588 5579 5570 5563 5554 5547 5540 5534 5527 5520 5514 5508 5499 5490 5481 5473 5466 5463 5463 5466
5708 5707 5707 5701 5700 5667 5686 5696 5689 5683 5674 5674 5667 5661 5658 5651 5650 5648 5641 5632 5622 5613 5602 5591 5583 5574 5565 5559 5551 5543 5537 5531 5524 5517 5510 5501 5490 5476 5461 5451 5436 5433 5437 5448
5712 5709 5701 5688 5693 5688 5682 5683 5679 5676 5665 5665 5661 5657 5652 5648 5648 5641 5633 5625 5616 5607 5595 5584 5577 5569 5560 5553 5547 5541 5535 5531 5524 5517 5507 5493 5477 5459 5440 5426 5413 5415 5422 5436
5706 5706 5696 5688 5671 5667 5675 5681 5684 5680 5659 5661 5659 5652 5648 5647 5642 5637 5628 5619 5610 5601 5591 5579 5572 5564 5557 5552 5547 5541 5537 5532 5525 5516 5502 5483 5466 5443 5426 5413 5408 5411 5419 5434
5695 5692 5683 5681 5675 5678 5678 5678 5680 5650 5651 5658 5657 5651 5646 5638 5633 5627 5621 5615 5607 5597 5587 5577 5571 5563 5558 5554 5548 5541 5536 5531 5524 5514 5497 5477 5458 5440 5423 5415 5412 5416 5425 5437
5690 5685 5687 5679 5669 5660 5675 5674 5657 5659 5659 5657 5654 5650 5643 5636 5630 5623 5617 5610 5602 5594 5585 5576 5570 5565 5559 5553 5546 5540 5535 5531 5524 5514 5498 5480 5460 5446 5432 5424 5423 5425 5433 5443
5674 5683 5682 5673 5666 5667 5670 5667 5664 5662 5657 5655 5650 5646 5639 5633 5626 5620 5614 5608 5600 5592 5584 5577 5570 5564 5559 5554 5549 5542 5537 5532 5525 5516 5504 5486 5469 5456 5445 5440 5440 5446 5448 5451
5679 5679 5677 5667 5664 5665 5664 5662 5660 5658 5655 5653 5649 5643 5636 5630 5625 5618 5613 5607 5601 5594 5587 5580 5572 5564 5560 5556 5551 5546 5541 5535 5528 5521 5511 5497 5482 5468 5462 5459 5459 5460 5465 5464
5679 5672 5669 5662 5663 5662 5661 5658 5656 5653 5651 5648 5645 5640 5632 5628 5623 5618 5612 5607 5602 5595 5588 5581 5573 5565 5559 5556 5552 5548 5544 5538 5531 5525 5518 5509 5502 5487 5480 5477 5474 5474 5475 5470
5675 5671 5668 5668 5661 5660 5655 5654 5653 5649 5645 5645 5641 5636 5632 5627 5621 5619 5612 5607 5601 5595 5587 5581 5575 5568 5563 5558 5553 5549 5546 5540 5533 5528 5528 5520 5511 5505 5499 5495 5493 5483 5483 5483